TimeMST,TemperatureF,Dew PointF,Humidity,Sea Level PressureIn,VisibilityMPH,Wind Direction,Wind SpeedMPH,Gust SpeedMPH,PrecipitationIn,Events,Conditions,WindDirDegrees,DateUTC
12:53 AM,30.0,10.0,43,30.01,10.0,WSW,12.7,-,N/A,,Clear,240,2013-01-22 07:53:00
1:53 AM,33.1,9.0,37,30.00,10.0,SSW,3.5,-,N/A,,Clear,200,2013-01-22 08:53:00
2:53 AM,30.0,9.0,41,30.03,10.0,Calm,Calm,-,N/A,,Clear,0,2013-01-22 09:53:00
3:53 AM,30.0,8.1,40,30.04,10.0,Calm,Calm,-,N/A,,Clear,0,2013-01-22 10:53:00
4:53 AM,30.9,8.1,38,30.06,10.0,SW,6.9,-,N/A,,Clear,230,2013-01-22 11:53:00
5:53 AM,33.1,7.0,34,30.08,10.0,South,3.5,-,N/A,,Clear,180,2013-01-22 12:53:00
6:53 AM,36.0,7.0,30,30.09,10.0,Calm,Calm,-,N/A,,Clear,0,2013-01-22 13:53:00
7:53 AM,26.1,8.1,47,30.10,10.0,WSW,8.1,-,N/A,,Clear,250,2013-01-22 14:53:00
8:53 AM,35.1,14.0,42,30.12,10.0,Calm,Calm,-,N/A,,Clear,0,2013-01-22 15:53:00
9:53 AM,39.9,12.9,33,30.12,10.0,SSW,4.6,-,N/A,,Clear,210,2013-01-22 16:53:00
10:53 AM,44.1,10.0,25,30.10,10.0,ESE,4.6,-,N/A,,Clear,110,2013-01-22 17:53:00
11:53 AM,44.1,12.0,27,30.10,10.0,SE,5.8,-,N/A,,Clear,130,2013-01-22 18:53:00
12:53 PM,45.0,10.9,25,30.06,10.0,East,5.8,-,N/A,,Clear,90,2013-01-22 19:53:00
1:53 PM,45.0,12.9,27,30.06,10.0,ESE,5.8,-,N/A,,Clear,120,2013-01-22 20:53:00
2:53 PM,45.0,14.0,29,30.09,10.0,ENE,4.6,-,N/A,,Clear,70,2013-01-22 21:53:00
3:53 PM,44.1,12.0,27,30.09,10.0,SSE,4.6,-,N/A,,Clear,160,2013-01-22 22:53:00
4:53 PM,37.0,14.0,39,30.12,10.0,SW,5.8,-,N/A,,Clear,220,2013-01-22 23:53:00
5:53 PM,37.0,12.9,37,30.09,10.0,Calm,Calm,-,N/A,,Clear,0,2013-01-23 00:53:00
6:53 PM,35.1,12.0,39,30.09,10.0,SSW,8.1,-,N/A,,Clear,210,2013-01-23 01:53:00
7:53 PM,36.0,10.0,34,30.10,10.0,SSE,4.6,-,N/A,,Clear,160,2013-01-23 02:53:00
8:53 PM,28.9,10.9,47,30.10,10.0,West,6.9,-,N/A,,Clear,270,2013-01-23 03:53:00
9:53 PM,32.0,9.0,38,30.07,10.0,SW,5.8,-,N/A,,Clear,230,2013-01-23 04:53:00
10:53 PM,32.0,9.0,38,30.06,10.0,WSW,8.1,-,N/A,,Clear,240,2013-01-23 05:53:00
11:53 PM,39.9,6.1,25,30.01,10.0,South,4.6,-,N/A,,Clear,190,2013-01-23 06:53:00